Location: Mauries
(43.6188°N, 0.3322°W)
Time: 04:35:40
(UTC+00:00)

Gblst 52 Del rocket - Pass Details

Date: 14 January 2026
Orbit: 805 x 1364 km, 51.5° (Epoch: 15 February)

Event Time Altitude Azimuth Distance (km) Brightness Sun altitude
Exits shadow 06:37:10 12° 304° (NW) 2,271 5.8 -9.9°
Maximum altitude 06:42:19 67° 27° (NNE) 881 4.4 -9.0°
Drops below altitude 10° 06:47:58 10° 110° (ESE) 2,471 8.4 -8.1°
Sets 06:50:34 0° 113° (ESE) 3,461 10.1 -7.6°
